Marion, IN

9:24 AM EST on February 23, 2017 (GMT -0500)
Marion Municipal

Weather History for KMZZ - May, 2014

Change the Weather History Date:

Saturday, May 10, 2014

  Actual Average (KMIE) Record (KMIE)
Temperature  
Mean Temperature 62 °F -  
Max Temperature 73 °F 68 °F 87 °F (1993)
Min Temperature 51 °F 47 °F 29 °F (1966)
Degree Days  
Heating Degree Days 3    
Growing Degree Days 12 (Base 50)    
Moisture  
Dew Point 43 °F    
Average Humidity 54    
Maximum Humidity 92    
Minimum Humidity 22    
Precipitation  
Precipitation 0.00 in - - ()
Sea Level Pressure  
Sea Level Pressure 29.96 in    
Wind  
Wind Speed 5 mph (WNW)    
Max Wind Speed 16 mph    
Max Gust Speed 20 mph    
Visibility 9 miles    
Events      
Averages and records for this station are not official NWS values.
T = Trace of Precipitation, MM = Missing Value Source: NWS Daily Summary

Daily Weather History Graph

Daily Weather History Graph

Search for Another Location

Airport or City:

Trip Planner

Search our weather history database for the weather conditions in past years. The results will help you decide how hot, cold, wet, or windy it might be!

Date:

Astronomy

May. 10, 2014 Rise Set
Actual Time 6:31 AM EDT 8:47 PM EDT
Civil Twilight 6:00 AM EDT 9:18 PM EDT
Nautical Twilight 5:23 AM EDT 9:55 PM EDT
Astronomical Twilight 4:42 AM EDT 10:37 PM EDT
Moon 4:41 PM EDT (5/10) 4:05 AM EDT (5/10)
Length of Visible Light 15h 17m
Length of Day
14h 16m
Waxing Gibbous, 82% of the Moon is Illuminated
May 10
Waxing Gibbous
May 14
Full
May 21
Last Quarter
May 28
New
Jun 5
First Quarter

Hourly Weather History & Observations

Time (EDT) Temp. Dew Point Humidity Pressure Visibility Wind Dir Wind Speed Gust Speed Precip Events Conditions
12:15 AM 57.9 °F 50.7 °F 77% 29.89 in 10.0 mi SSW 6.9 mph - N/A   Scattered Clouds
12:35 AM 58.8 °F 50.9 °F 75% 29.89 in 10.0 mi WSW 5.8 mph - N/A   Mostly Cloudy
12:55 AM 59.0 °F 51.6 °F 76% 29.91 in 10.0 mi West 5.8 mph - N/A   Mostly Cloudy
1:15 AM 57.4 °F 51.3 °F 80% 29.91 in 10.0 mi WSW 3.5 mph - N/A   Scattered Clouds
1:35 AM 56.7 °F 51.1 °F 82% 29.91 in 10.0 mi West 3.5 mph - N/A   Clear
1:55 AM 56.7 °F 51.3 °F 82% 29.91 in 10.0 mi WSW 3.5 mph - N/A   Mostly Cloudy
2:15 AM 56.3 °F 51.3 °F 83% 29.91 in 10.0 mi West 6.9 mph - N/A   Scattered Clouds
2:35 AM 56.3 °F 51.8 °F 85% 29.91 in 10.0 mi West 9.2 mph - N/A   Mostly Cloudy
2:55 AM 57.2 °F 52.5 °F 84% 29.91 in 10.0 mi WNW 8.1 mph - N/A   Scattered Clouds
3:15 AM 56.5 °F 52.2 °F 85% 29.92 in 10.0 mi West 6.9 mph - N/A   Scattered Clouds
3:35 AM 56.1 °F 52.0 °F 86% 29.92 in 10.0 mi WSW 5.8 mph - N/A   Mostly Cloudy
3:55 AM 55.9 °F 52.0 °F 87% 29.93 in 10.0 mi Calm Calm - N/A   Mostly Cloudy
4:15 AM 55.2 °F 51.6 °F 88% 29.93 in 10.0 mi West 3.5 mph - N/A   Mostly Cloudy
4:35 AM 55.0 °F 51.3 °F 87% 29.94 in 10.0 mi NNW 3.5 mph - N/A   Scattered Clouds
4:55 AM 55.6 °F 50.9 °F 84% 29.94 in 10.0 mi Calm Calm - N/A   Mostly Cloudy
5:15 AM 54.7 °F 50.4 °F 85% 29.94 in 10.0 mi Calm Calm - N/A   Mostly Cloudy
5:35 AM 53.1 °F 49.6 °F 88% 29.95 in 10.0 mi Calm Calm - N/A   Scattered Clouds
5:55 AM 52.5 °F 49.3 °F 89% 29.95 in 10.0 mi Calm Calm - N/A   Scattered Clouds
6:15 AM 52.9 °F 50.0 °F 90% 29.96 in 10.0 mi Calm Calm - N/A   Clear
6:35 AM 52.7 °F 49.8 °F 90% 29.97 in 7.0 mi Calm Calm - N/A   Scattered Clouds
6:55 AM 52.2 °F 49.5 °F 91% 29.97 in 7.0 mi Calm Calm - N/A   Scattered Clouds
7:15 AM 51.8 °F 49.5 °F 92% 29.97 in 7.0 mi Calm Calm - N/A   Clear
7:35 AM 52.0 °F 49.6 °F 92% 29.97 in 7.0 mi Calm Calm - N/A   Clear
7:55 AM 52.5 °F 49.8 °F 91% 29.97 in 5.0 mi SE 3.5 mph - N/A   Clear
8:15 AM 53.1 °F 49.8 °F 89% 29.98 in 10.0 mi Calm Calm - N/A   Clear
8:35 AM 55.6 °F 50.0 °F 81% 29.98 in 10.0 mi SE 4.6 mph - N/A   Clear
8:55 AM 58.5 °F 48.4 °F 69% 29.99 in 10.0 mi SE 4.6 mph - N/A   Clear
9:15 AM 59.9 °F 45.7 °F 59% 29.99 in 10.0 mi SE 3.5 mph - N/A   Clear
9:35 AM 61.2 °F 43.7 °F 53% 29.99 in 10.0 mi East 4.6 mph - N/A   Clear
9:55 AM 61.9 °F 43.5 °F 51% 29.99 in 10.0 mi NNE 3.5 mph - N/A   Clear
10:15 AM 62.8 °F 42.1 °F 47% 29.99 in 10.0 mi ENE 4.6 mph - N/A   Clear
10:35 AM 63.5 °F 41.4 °F 44% 29.98 in 10.0 mi NNE 6.9 mph - N/A   Clear
10:55 AM 64.4 °F 40.5 °F 41% 29.99 in 10.0 mi North 5.8 mph - N/A   Clear
11:15 AM 64.8 °F 39.6 °F 40% 29.99 in 10.0 mi East 3.5 mph - N/A   Clear
11:35 AM 65.5 °F 41.7 °F 42% 29.98 in 10.0 mi Calm Calm - N/A   Scattered Clouds
11:55 AM 66.2 °F 40.3 °F 39% 29.98 in 7.0 mi NNE 4.6 mph - N/A   Scattered Clouds
12:15 PM 66.7 °F 40.3 °F 38% 29.98 in 7.0 mi Calm Calm - N/A   Clear
12:35 PM 67.8 °F 40.6 °F 37% 29.98 in 7.0 mi NNW 6.9 mph - N/A   Clear
12:55 PM 68.9 °F 38.7 °F 33% 29.97 in 10.0 mi WNW 6.9 mph - N/A   Clear
1:15 PM 69.6 °F 37.6 °F 31% 29.97 in 10.0 mi NNW 8.1 mph - N/A   Clear
1:35 PM 70.3 °F 38.8 °F 32% 29.96 in 10.0 mi North 6.9 mph 18.4 mph N/A   Clear
1:55 PM 69.8 °F 38.8 °F 32% 29.96 in 7.0 mi NNW 5.8 mph 18.4 mph N/A   Clear
2:15 PM 70.0 °F 39.4 °F 33% 29.96 in 7.0 mi West 10.4 mph - N/A   Clear
2:35 PM 71.2 °F 38.8 °F 31% 29.95 in 10.0 mi West 8.1 mph 18.4 mph N/A   Clear
2:55 PM 71.2 °F 37.2 °F 29% 29.95 in 7.0 mi WNW 9.2 mph 17.3 mph N/A   Clear
3:15 PM 72.5 °F 37.0 °F 27% 29.95 in 7.0 mi WNW 11.5 mph 19.6 mph N/A   Clear
3:35 PM 72.7 °F 36.9 °F 27% 29.95 in 10.0 mi NW 9.2 mph 18.4 mph N/A   Clear
3:55 PM 72.3 °F 37.6 °F 28% 29.94 in 10.0 mi NNW 9.2 mph - N/A   Clear
4:15 PM 72.7 °F 38.3 °F 29% 29.94 in 10.0 mi WNW 4.6 mph - N/A   Clear
4:35 PM 73.2 °F 35.8 °F 26% 29.94 in 10.0 mi WNW 15.0 mph 18.4 mph N/A   Clear
4:55 PM 73.9 °F 33.1 °F 22% 29.94 in 10.0 mi WNW 16.1 mph 19.6 mph N/A   Clear
5:15 PM 73.6 °F 32.9 °F 23% 29.94 in 10.0 mi WNW 9.2 mph 17.3 mph N/A   Clear
5:35 PM 73.0 °F 34.2 °F 24% 29.94 in 7.0 mi NW 8.1 mph - N/A   Clear
5:55 PM 73.0 °F 33.8 °F 24% 29.94 in 7.0 mi WNW 9.2 mph - N/A   Clear
6:15 PM 73.0 °F 32.5 °F 23% 29.95 in 10.0 mi West 9.2 mph - N/A   Clear
6:35 PM 72.9 °F 32.4 °F 23% 29.95 in 10.0 mi WNW 11.5 mph 18.4 mph N/A   Clear
6:55 PM 72.5 °F 32.7 °F 23% 29.95 in 10.0 mi West 8.1 mph 11.5 mph N/A   Clear
7:15 PM 72.1 °F 32.9 °F 24% 29.95 in 10.0 mi NW 5.8 mph - N/A   Clear
7:35 PM 71.6 °F 32.7 °F 24% 29.95 in 10.0 mi WNW 8.1 mph - N/A   Clear
7:55 PM 71.2 °F 31.8 °F 23% 29.96 in 10.0 mi NW 8.1 mph - N/A   Clear
8:15 PM 70.5 °F 32.0 °F 24% 29.96 in 7.0 mi NW 3.5 mph - N/A   Clear
8:35 PM 69.3 °F 32.2 °F 25% 29.96 in 7.0 mi Calm Calm - N/A   Clear
8:55 PM 67.8 °F 33.6 °F 28% 29.96 in 10.0 mi Calm Calm - N/A   Clear
9:15 PM 64.0 °F 37.9 °F 38% 29.96 in 10.0 mi Calm Calm - N/A   Clear
9:35 PM 61.7 °F 37.6 °F 41% 29.98 in 10.0 mi Calm Calm - N/A   Clear
9:55 PM 60.3 °F 38.7 °F 45% 29.99 in 10.0 mi Calm Calm - N/A   Clear
10:15 PM 58.5 °F 39.7 °F 50% 30.00 in 7.0 mi Calm Calm - N/A   Clear
10:35 PM 57.7 °F 39.7 °F 51% 30.00 in 10.0 mi Calm Calm - N/A   Clear
10:55 PM 57.0 °F 40.6 °F 54% 30.00 in 10.0 mi SE 3.5 mph - N/A   Clear
11:15 PM 55.8 °F 39.7 °F 55% 30.00 in 10.0 mi North 4.6 mph - N/A   Clear
11:35 PM 55.6 °F 39.7 °F 55% 30.01 in 10.0 mi Calm Calm - N/A   Clear
11:55 PM 55.9 °F 40.1 °F 55% 30.02 in 7.0 mi Calm Calm - N/A   Clear